Time,TemperatureF,DewpointF,PressureIn,WindDirection,WindDirectionDegrees,WindSpeedMPH,WindSpeedGustMPH,Humidity,HourlyPrecipIn,Conditions,Clouds,dailyrainin,SoftwareType,DateUTC
2013-03-03 00:02:00,33.0,25.0,30.04,North,1,9.0,14.0,72,0.00,,,0.02,,2013-03-03 05:02:00,
2013-03-03 00:12:00,33.0,25.0,30.04,North,1,9.0,14.0,72,0.00,,,0.02,,2013-03-03 05:12:00,
2013-03-03 00:22:00,33.0,25.0,30.05,NW,322,9.0,12.0,72,0.00,,,0.02,,2013-03-03 05:22:00,
2013-03-03 00:32:00,33.0,25.0,30.04,North,6,10.0,16.0,72,0.00,,,0.02,,2013-03-03 05:32:00,
2013-03-03 00:42:00,33.0,25.0,30.04,North,6,10.0,16.0,72,0.00,,,0.02,,2013-03-03 05:42:00,
2013-03-03 00:52:00,32.0,24.0,30.04,NNE,31,10.0,18.0,71,0.00,,,0.02,,2013-03-03 05:52:00,
2013-03-03 01:02:00,32.0,24.0,30.04,North,6,6.0,9.0,72,0.00,,,0.02,,2013-03-03 06:02:00,
2013-03-03 01:11:00,32.0,24.0,30.04,North,6,6.0,9.0,72,0.00,,,0.02,,2013-03-03 06:11:00,
2013-03-03 01:21:00,32.0,24.0,30.04,NNE,14,6.0,10.0,72,0.00,,,0.02,,2013-03-03 06:21:00,
2013-03-03 01:32:00,32.0,24.0,30.05,North,8,5.0,8.0,72,0.00,,,0.02,,2013-03-03 06:32:00,
2013-03-03 01:42:00,32.0,24.0,30.05,North,8,5.0,8.0,72,0.00,,,0.02,,2013-03-03 06:42:00,
2013-03-03 01:52:00,32.0,24.0,30.05,NNW,346,7.0,13.0,72,0.00,,,0.02,,2013-03-03 06:52:00,
2013-03-03 02:01:00,31.0,23.0,30.05,North,359,6.0,9.0,72,0.00,,,0.02,,2013-03-03 07:01:00,
2013-03-03 02:11:00,31.0,23.0,30.05,North,359,6.0,9.0,72,0.00,,,0.02,,2013-03-03 07:11:00,
2013-03-03 02:21:00,31.0,23.0,30.05,NNW,330,7.0,10.0,71,0.00,,,0.02,,2013-03-03 07:21:00,
2013-03-03 02:32:00,31.0,22.0,30.05,NNW,339,7.0,12.0,70,0.00,,,0.02,,2013-03-03 07:32:00,
2013-03-03 02:42:00,31.0,22.0,30.05,NNW,339,7.0,12.0,70,0.00,,,0.02,,2013-03-03 07:42:00,
2013-03-03 02:51:00,31.0,22.0,30.04,NE,38,10.0,15.0,68,0.00,,,0.02,,2013-03-03 07:51:00,
2013-03-03 03:01:00,31.0,22.0,30.04,North,350,5.0,10.0,69,0.00,,,0.02,,2013-03-03 08:01:00,
2013-03-03 03:11:00,31.0,22.0,30.04,North,350,5.0,10.0,69,0.00,,,0.02,,2013-03-03 08:11:00,
2013-03-03 03:21:00,31.0,22.0,30.03,North,357,8.0,13.0,70,0.00,,,0.02,,2013-03-03 08:21:00,
2013-03-03 03:31:00,31.0,22.0,30.03,NNW,335,9.0,14.0,69,0.00,,,0.02,,2013-03-03 08:31:00,
2013-03-03 03:42:00,31.0,22.0,30.03,NNW,335,9.0,14.0,69,0.00,,,0.02,,2013-03-03 08:42:00,
2013-03-03 03:53:00,31.0,22.0,30.03,NNE,17,7.0,10.0,69,0.00,,,0.02,,2013-03-03 08:53:00,
2013-03-03 04:01:00,30.0,21.0,30.03,NNE,17,6.0,13.0,68,0.00,,,0.02,,2013-03-03 09:01:00,
2013-03-03 04:12:00,30.0,21.0,30.03,NNE,17,6.0,13.0,68,0.00,,,0.02,,2013-03-03 09:12:00,
2013-03-03 04:21:00,31.0,22.0,30.03,North,7,5.0,8.0,68,0.00,,,0.02,,2013-03-03 09:21:00,
2013-03-03 04:32:00,30.0,21.0,30.04,NW,316,11.0,17.0,69,0.00,,,0.02,,2013-03-03 09:32:00,
2013-03-03 04:42:00,30.0,21.0,30.04,NW,316,11.0,17.0,69,0.00,,,0.02,,2013-03-03 09:42:00,
2013-03-03 04:52:00,30.0,22.0,30.04,SW,232,6.0,9.0,71,0.00,,,0.01,,2013-03-03 09:52:00,
2013-03-03 05:01:00,30.0,22.0,30.04,South,173,6.0,9.0,71,0.00,,,0.01,,2013-03-03 10:01:00,
2013-03-03 05:11:00,30.0,22.0,30.04,South,173,6.0,9.0,71,0.00,,,0.01,,2013-03-03 10:11:00,
2013-03-03 05:21:00,30.0,21.0,30.03,NE,41,10.0,14.0,68,0.00,,,0.01,,2013-03-03 10:21:00,
2013-03-03 05:32:00,30.0,20.0,30.03,North,359,11.0,20.0,66,0.00,,,0.01,,2013-03-03 10:32:00,
2013-03-03 05:42:00,30.0,20.0,30.03,North,359,11.0,20.0,66,0.00,,,0.01,,2013-03-03 10:42:00,
2013-03-03 05:52:00,30.0,19.0,30.04,North,359,9.0,15.0,64,0.00,,,0.01,,2013-03-03 10:52:00,
2013-03-03 06:01:00,30.0,19.0,30.05,North,359,11.0,23.0,63,0.00,,,0.00,,2013-03-03 11:01:00,
2013-03-03 06:11:00,30.0,19.0,30.05,North,359,11.0,23.0,63,0.00,,,0.00,,2013-03-03 11:11:00,
2013-03-03 06:21:00,29.0,19.0,30.05,NW,307,7.0,11.0,65,0.00,,,0.00,,2013-03-03 11:21:00,
2013-03-03 06:32:00,29.0,18.0,30.04,NNE,28,8.0,12.0,64,0.00,,,0.00,,2013-03-03 11:32:00,
2013-03-03 06:42:00,29.0,18.0,30.04,NNE,28,8.0,12.0,64,0.00,,,0.00,,2013-03-03 11:42:00,
2013-03-03 06:52:00,29.0,18.0,30.05,WNW,290,7.0,12.0,62,0.00,,,0.00,,2013-03-03 11:52:00,
2013-03-03 07:01:00,29.0,18.0,30.05,North,4,10.0,15.0,62,0.00,,,0.00,,2013-03-03 12:01:00,
2013-03-03 07:11:00,29.0,18.0,30.05,North,4,10.0,15.0,62,0.00,,,0.00,,2013-03-03 12:11:00,
2013-03-03 07:21:00,29.0,18.0,30.06,NNE,25,3.0,9.0,63,0.00,,,0.00,,2013-03-03 12:21:00,
2013-03-03 07:32:00,29.0,18.0,30.06,NNW,336,9.0,13.0,63,0.00,,,0.00,,2013-03-03 12:32:00,
2013-03-03 07:43:00,29.0,18.0,30.06,NNW,336,9.0,13.0,63,0.00,,,0.00,,2013-03-03 12:43:00,
2013-03-03 07:53:00,29.0,18.0,30.06,NW,326,7.0,10.0,62,0.00,,,0.00,,2013-03-03 12:53:00,
2013-03-03 08:01:00,30.0,19.0,30.07,ENE,76,4.0,7.0,63,0.00,,,0.00,,2013-03-03 13:01:00,
2013-03-03 08:11:00,30.0,19.0,30.07,ENE,76,4.0,7.0,63,0.00,,,0.00,,2013-03-03 13:11:00,
2013-03-03 08:22:00,31.0,20.0,30.07,North,6,6.0,10.0,62,0.00,,,0.00,,2013-03-03 13:22:00,
2013-03-03 08:32:00,31.0,20.0,30.09,West,263,12.0,19.0,62,0.00,,,0.00,,2013-03-03 13:32:00,
2013-03-03 08:42:00,31.0,20.0,30.09,West,263,12.0,19.0,62,0.00,,,0.00,,2013-03-03 13:42:00,
2013-03-03 08:52:00,32.0,21.0,30.08,NNW,346,5.0,8.0,64,0.00,,,0.00,,2013-03-03 13:52:00,
2013-03-03 09:02:00,32.0,21.0,30.08,SSE,150,2.0,5.0,63,0.00,,,0.00,,2013-03-03 14:02:00,
2013-03-03 09:11:00,32.0,21.0,30.08,SSE,150,2.0,5.0,63,0.00,,,0.00,,2013-03-03 14:11:00,
2013-03-03 09:21:00,33.0,21.0,30.09,NNE,30,9.0,15.0,61,0.00,,,0.00,,2013-03-03 14:21:00,
2013-03-03 09:32:00,33.0,21.0,30.09,ESE,108,3.0,5.0,61,0.00,,,0.00,,2013-03-03 14:32:00,
2013-03-03 09:42:00,33.0,21.0,30.09,ESE,108,3.0,5.0,61,0.00,,,0.00,,2013-03-03 14:42:00,
2013-03-03 09:52:00,34.0,21.0,30.09,East,100,5.0,9.0,59,0.00,,,0.00,,2013-03-03 14:52:00,
2013-03-03 10:02:00,34.0,21.0,30.09,North,354,7.0,10.0,59,0.00,,,0.00,,2013-03-03 15:02:00,
2013-03-03 10:11:00,34.0,21.0,30.09,North,354,7.0,10.0,59,0.00,,,0.00,,2013-03-03 15:11:00,
2013-03-03 10:22:00,35.0,22.0,30.09,West,266,6.0,8.0,59,0.00,,,0.00,,2013-03-03 15:22:00,
2013-03-03 10:32:00,36.0,23.0,30.09,North,10,7.0,11.0,58,0.00,,,0.00,,2013-03-03 15:32:00,
2013-03-03 10:42:00,36.0,23.0,30.09,North,10,7.0,11.0,58,0.00,,,0.00,,2013-03-03 15:42:00,
2013-03-03 10:52:00,37.0,22.0,30.09,WNW,293,4.0,7.0,55,0.00,,,0.00,,2013-03-03 15:52:00,
2013-03-03 11:01:00,39.0,22.0,30.08,North,1,7.0,10.0,51,0.00,,,0.00,,2013-03-03 16:01:00,
2013-03-03 11:12:00,39.0,22.0,30.08,North,1,7.0,10.0,51,0.00,,,0.00,,2013-03-03 16:12:00,
2013-03-03 11:22:00,38.0,21.0,30.08,North,354,5.0,8.0,50,0.00,,,0.00,,2013-03-03 16:22:00,
2013-03-03 11:32:00,39.0,21.0,30.08,North,8,5.0,11.0,49,0.00,,,0.00,,2013-03-03 16:32:00,
2013-03-03 11:42:00,39.0,21.0,30.08,North,8,5.0,11.0,49,0.00,,,0.00,,2013-03-03 16:42:00,
2013-03-03 11:52:00,39.0,22.0,30.07,NE,37,6.0,9.0,51,0.00,,,0.00,,2013-03-03 16:52:00,
2013-03-03 12:01:00,40.0,22.0,30.07,NNW,343,4.0,6.0,49,0.00,,,0.00,,2013-03-03 17:01:00,
2013-03-03 12:11:00,39.0,20.0,30.08,WSW,249,5.0,9.0,47,0.00,,,0.00,,2013-03-03 17:11:00,
2013-03-03 12:22:00,39.0,20.0,30.08,WSW,249,5.0,9.0,47,0.00,,,0.00,,2013-03-03 17:22:00,
2013-03-03 12:32:00,41.0,22.0,30.07,ENE,60,3.0,4.0,46,0.00,,,0.00,,2013-03-03 17:32:00,
2013-03-03 12:42:00,41.0,22.0,30.07,ENE,60,3.0,4.0,46,0.00,,,0.00,,2013-03-03 17:42:00,
2013-03-03 12:52:00,41.0,23.0,30.07,WSW,255,3.0,7.0,48,0.00,,,0.00,,2013-03-03 17:52:00,
2013-03-03 13:02:00,40.0,22.0,30.07,SE,145,6.0,11.0,49,0.00,,,0.00,,2013-03-03 18:02:00,
2013-03-03 13:11:00,40.0,22.0,30.07,SE,145,6.0,11.0,49,0.00,,,0.00,,2013-03-03 18:11:00,
2013-03-03 13:21:00,39.0,22.0,30.06,SW,229,6.0,11.0,50,0.00,,,0.00,,2013-03-03 18:21:00,
2013-03-03 13:32:00,41.0,22.0,30.06,SW,229,7.0,13.0,47,0.00,,,0.00,,2013-03-03 18:32:00,
2013-03-03 13:40:00,41.0,22.0,30.06,East,82,3.0,7.0,46,0.00,,,0.00,,2013-03-03 18:40:00,
2013-03-03 13:42:00,41.0,22.0,30.06,SW,229,7.0,13.0,47,0.00,,,0.00,,2013-03-03 18:42:00,
2013-03-03 13:52:00,41.0,22.0,30.06,WNW,290,5.0,11.0,46,0.00,,,0.00,,2013-03-03 18:52:00,
2013-03-03 14:02:00,41.0,22.0,30.06,East,82,3.0,7.0,46,0.00,,,0.00,,2013-03-03 19:02:00,
2013-03-03 14:11:00,41.0,22.0,30.06,East,82,3.0,7.0,46,0.00,,,0.00,,2013-03-03 19:11:00,
2013-03-03 14:22:00,41.0,22.0,30.06,East,82,3.0,7.0,46,0.00,,,0.00,,2013-03-03 19:22:00,
2013-03-03 14:32:00,41.0,22.0,30.06,East,82,3.0,7.0,46,0.00,,,0.00,,2013-03-03 19:32:00,
2013-03-03 18:22:00,36.0,21.0,30.06,NNE,23,8.0,14.0,55,0.00,,,0.00,,2013-03-03 23:22:00,
2013-03-03 18:32:00,35.0,21.0,30.07,West,278,6.0,10.0,56,0.00,,,0.00,,2013-03-03 23:32:00,
2013-03-03 18:42:00,35.0,21.0,30.07,West,278,6.0,10.0,56,0.00,,,0.00,,2013-03-03 23:42:00,
2013-03-03 18:52:00,34.0,21.0,30.06,NNE,27,7.0,10.0,58,0.00,,,0.00,,2013-03-03 23:52:00,
2013-03-03 19:02:00,34.0,21.0,30.06,North,7,5.0,12.0,59,0.00,,,0.00,,2013-03-04 00:02:00,
2013-03-03 19:11:00,34.0,21.0,30.06,North,7,5.0,12.0,59,0.00,,,0.00,,2013-03-04 00:11:00,
2013-03-03 19:21:00,34.0,22.0,30.07,West,266,4.0,7.0,61,0.00,,,0.00,,2013-03-04 00:21:00,
2013-03-03 19:32:00,34.0,22.0,30.07,NE,49,8.0,19.0,61,0.00,,,0.00,,2013-03-04 00:32:00,
2013-03-03 19:42:00,34.0,22.0,30.07,NE,49,8.0,19.0,61,0.00,,,0.00,,2013-03-04 00:42:00,
2013-03-03 19:52:00,33.0,21.0,30.07,North,359,7.0,19.0,61,0.00,,,0.00,,2013-03-04 00:52:00,
2013-03-03 20:01:00,33.0,21.0,30.08,NW,305,8.0,14.0,62,0.00,,,0.00,,2013-03-04 01:01:00,
2013-03-03 20:12:00,33.0,21.0,30.08,NW,305,8.0,14.0,62,0.00,,,0.00,,2013-03-04 01:12:00,
2013-03-03 20:21:00,33.0,22.0,30.08,North,8,14.0,25.0,64,0.00,,,0.00,,2013-03-04 01:21:00,
2013-03-03 20:32:00,32.0,21.0,30.10,NNW,328,12.0,19.0,64,0.00,,,0.00,,2013-03-04 01:32:00,
2013-03-03 20:42:00,32.0,21.0,30.10,NNW,328,12.0,19.0,64,0.00,,,0.00,,2013-03-04 01:42:00,
2013-03-03 20:51:00,32.0,21.0,30.10,North,359,7.0,10.0,63,0.00,,,0.00,,2013-03-04 01:51:00,
2013-03-03 21:01:00,32.0,22.0,30.12,WNW,300,10.0,18.0,65,0.00,,,0.00,,2013-03-04 02:01:00,
2013-03-03 21:11:00,32.0,21.0,30.12,North,357,8.0,13.0,64,0.00,,,0.00,,2013-03-04 02:11:00,
2013-03-03 21:22:00,32.0,21.0,30.12,North,357,8.0,13.0,64,0.00,,,0.00,,2013-03-04 02:22:00,
2013-03-03 21:32:00,32.0,21.0,30.12,NNW,345,9.0,16.0,63,0.00,,,0.00,,2013-03-04 02:32:00,
2013-03-03 21:42:00,32.0,21.0,30.12,NNW,345,9.0,16.0,63,0.00,,,0.00,,2013-03-04 02:42:00,
2013-03-03 21:52:00,32.0,20.0,30.12,NNE,21,8.0,12.0,62,0.00,,,0.00,,2013-03-04 02:52:00,
2013-03-03 22:02:00,32.0,20.0,30.12,NNW,338,7.0,13.0,62,0.00,,,0.00,,2013-03-04 03:02:00,
2013-03-03 22:11:00,32.0,20.0,30.12,NNW,338,7.0,13.0,62,0.00,,,0.00,,2013-03-04 03:11:00,
2013-03-03 22:22:00,32.0,20.0,30.11,NNW,346,6.0,10.0,62,0.00,,,0.00,,2013-03-04 03:22:00,
2013-03-03 22:32:00,32.0,20.0,30.11,NNE,18,8.0,15.0,62,0.00,,,0.00,,2013-03-04 03:32:00,
2013-03-03 22:42:00,32.0,20.0,30.12,NNW,340,8.0,14.0,60,0.00,,,0.00,,2013-03-04 03:42:00,
2013-03-03 22:52:00,32.0,20.0,30.12,NNW,340,8.0,14.0,60,0.00,,,0.00,,2013-03-04 03:52:00,
2013-03-03 23:01:00,32.0,20.0,30.12,North,3,3.0,6.0,62,0.00,,,0.00,,2013-03-04 04:01:00,
2013-03-03 23:11:00,32.0,20.0,30.12,North,3,3.0,6.0,62,0.00,,,0.00,,2013-03-04 04:11:00,
2013-03-03 23:22:00,32.0,20.0,30.11,NE,53,6.0,10.0,62,0.00,,,0.00,,2013-03-04 04:22:00,
2013-03-03 23:32:00,32.0,20.0,30.11,North,354,7.0,13.0,62,0.00,,,0.00,,2013-03-04 04:32:00,
2013-03-03 23:42:00,32.0,20.0,30.11,North,354,7.0,13.0,62,0.00,,,0.00,,2013-03-04 04:42:00,
2013-03-03 23:52:00,31.0,20.0,30.11,NE,35,8.0,12.0,63,0.00,,,0.00,,2013-03-04 04:52:00,